Weather History for Northeast Philadelphia, PA

Change the Weather History Date:

Sunday, February 2, 2014

  Actual Average Record
Temperature  
Mean Temperature 44 °F -  
Max Temperature 57 °F 39 °F 57 °F (2009)
Min Temperature 30 °F 24 °F 17 °F (2013)
Degree Days  
Heating Degree Days 22    
Moisture  
Dew Point 33 °F    
Average Humidity 68    
Maximum Humidity 92    
Minimum Humidity 42    
Precipitation  
Precipitation 0.00 in - - ()
Sea Level Pressure  
Sea Level Pressure 30.02 in    
Wind  
Wind Speed 3 mph (NNW)    
Max Wind Speed 12 mph    
Max Gust Speed -    
Visibility 8 miles    
Events      
Averages and records for this station are not official NWS values.
T = Trace of Precipitation, MM = Missing Value Source: NWS Daily Summary

Daily Weather History Graph

Daily Weather History Graph

Search for Another Location

Airport:

Trip Planner

Search our weather history database for the weather conditions in past years. The results will help you decide how hot, cold, wet, or windy it might be!

Date:

Astronomy

Feb. 02, 2014 Rise Set
Actual Time 7:07 AM EST 5:20 PM EST
Civil Twilight 6:39 AM EST 5:48 PM EST
Nautical Twilight 6:06 AM EST 6:21 PM EST
Astronomical Twilight 5:35 AM EST 6:53 PM EST
Moon 8:34 AM EST (2/2) 9:01 PM EST (2/2)
Length of Visible Light 11h 09m
Length of Day
10h 12m
Waxing Crescent, 11% of the Moon is Illuminated
Feb 2
Waxing Crescent
Feb 6
First Quarter
Feb 14
Full
Feb 22
Last Quarter
Mar 1
New

Hourly Weather History & Observations

Time (EST) Temp. Windchill Dew Point Humidity Pressure Visibility Wind Dir Wind Speed Gust Speed Precip Events Conditions
12:54 AM 32.0 °F 27.5 °F 28.0 °F 85% 30.01 in 7.0 mi NE 4.6 mph - N/A   Clear
1:54 AM 30.9 °F - 28.0 °F 89% 29.99 in 6.0 mi Calm Calm - N/A   Clear
2:54 AM 32.0 °F - 28.0 °F 85% 29.98 in 5.0 mi Calm Calm - N/A   Clear
3:54 AM 30.0 °F - 27.0 °F 88% 29.96 in 5.0 mi Calm Calm - N/A   Clear
4:54 AM 30.0 °F - 27.0 °F 88% 29.96 in 5.0 mi Calm Calm - N/A   Clear
5:54 AM 30.0 °F - 27.0 °F 88% 29.97 in 5.0 mi Calm Calm - N/A   Clear
6:54 AM 30.0 °F - 26.1 °F 85% 29.97 in 5.0 mi Calm Calm - N/A   Clear
7:54 AM 30.0 °F - 28.0 °F 92% 29.99 in 4.0 mi Calm Calm - N/A   Clear
8:54 AM 36.0 °F - 32.0 °F 86% 29.99 in 4.0 mi Calm Calm - N/A   Clear
9:54 AM 43.0 °F 41.3 °F 35.1 °F 74% 30.01 in 5.0 mi West 3.5 mph - N/A   Haze
10:54 AM 46.9 °F - 35.1 °F 63% 30.02 in 7.0 mi West 4.6 mph - N/A   Overcast
11:54 AM 50.0 °F - 30.9 °F 48% 30.00 in 10.0 mi West 3.5 mph - N/A   Overcast
12:54 PM 55.0 °F - 32.0 °F 42% 29.98 in 10.0 mi West 4.6 mph - N/A   Mostly Cloudy
1:54 PM 55.9 °F - 33.1 °F 42% 29.98 in 10.0 mi NW 8.1 mph - N/A   Mostly Cloudy
2:54 PM 55.9 °F - 33.1 °F 42% 29.96 in 10.0 mi WNW 3.5 mph - N/A   Overcast
3:54 PM 57.0 °F - 34.0 °F 42% 29.96 in 8.0 mi Calm Calm - N/A   Scattered Clouds
4:54 PM 51.1 °F - 34.0 °F 52% 30.00 in 10.0 mi North 5.8 mph - N/A   Scattered Clouds
5:54 PM 51.1 °F - 33.1 °F 50% 30.01 in 10.0 mi Calm Calm - N/A   Overcast
6:54 PM 48.0 °F - 35.1 °F 61% 30.03 in 10.0 mi Calm Calm - N/A   Overcast
7:54 PM 50.0 °F - 34.0 °F 54% 30.06 in 10.0 mi NNW 6.9 mph - N/A   Overcast
8:54 PM 48.9 °F - 34.0 °F 56% 30.09 in 10.0 mi NNW 6.9 mph - N/A   Overcast
9:31 PM 48.0 °F - 37.0 °F 66% 30.08 in 10.0 mi NNW 5.8 mph - N/A   Overcast
9:39 PM 48.0 °F - 37.9 °F 68% 30.09 in 10.0 mi North 10.4 mph - N/A   Overcast
9:54 PM 46.9 °F - 37.9 °F 71% 30.10 in 10.0 mi North 9.2 mph - N/A   Overcast
10:15 PM 46.9 °F - 37.9 °F 71% 30.10 in 10.0 mi North 9.2 mph - N/A   Overcast
10:54 PM 45.0 °F 39.3 °F 37.9 °F 76% 30.11 in 8.0 mi North 11.5 mph - N/A   Overcast
11:54 PM 44.1 °F 39.0 °F 37.9 °F 79% 30.10 in 8.0 mi North 9.2 mph - N/A   Overcast